GFSMW_850_temp_093.txt.gz
Temp
23 22 20 19 18 16 15 14 13 10 10 9 9 9 10 9 9 9 9 10 10 10 10 10 9 11 11 10 10 10 10 10 10 10 10 10 10 10 10 9 10 10 10
22 21 20 19 18 17 15 14 12 10 9 9 9 9 9 9 10 10 10 10 10 10 10 9 10 10 10 10 10 10 10 10 11 11 10 10 10 10 10 10 9 9 9
22 20 19 18 17 16 15 14 12 9 9 9 9 9 9 9 9 9 9 9 9 10 9 9 10 10 10 10 10 11 11 11 11 10 10 10 10 10 10 10 10 10 9
21 20 18 17 17 16 14 13 11 9 9 9 9 9 9 8 8 8 8 8 8 9 9 9 9 9 9 10 10 11 11 11 11 10 11 11 11 10 10 10 10 10 10
20 19 19 18 17 16 14 12 10 9 9 8 9 9 9 8 8 9 9 9 8 8 8 8 9 9 9 10 10 10 10 10 11 11 11 11 11 11 11 11 11 10 10
20 21 19 17 17 15 14 12 10 9 9 9 9 9 9 9 9 9 9 8 9 8 8 8 8 8 8 9 10 10 10 10 10 11 11 11 11 11 11 11 11 11 11
20 18 17 16 16 15 14 12 10 9 9 9 9 9 9 10 10 10 9 7 7 7 7 7 8 8 9 9 10 10 10 10 10 10 12 11 11 11 11 11 11 11 11
21 19 19 18 16 16 15 13 10 9 9 9 9 9 10 9 10 10 9 7 8 8 8 8 8 9 9 9 9 10 10 10 10 10 10 11 10 11 11 11 10 10 10
20 19 18 17 17 16 16 14 12 9 9 9 9 9 10 9 9 10 9 8 8 8 9 8 8 8 9 9 9 9 9 10 11 11 10 11 11 11 11 11 11 11 10
21 19 19 18 18 18 17 15 13 10 9 8 8 9 9 9 9 9 9 9 8 9 9 9 9 9 9 10 9 9 9 10 11 11 11 11 11 11 11 11 11 11 10
22 18 19 18 18 17 17 15 13 10 9 9 8 9 9 8 9 9 9 9 8 9 9 9 9 9 10 10 10 9 10 10 11 11 11 11 11 11 11 11 11 11 11
22 21 19 17 17 17 17 16 14 12 9 8 9 8 9 9 8 8 9 9 9 9 9 10 10 10 10 10 10 10 10 10 10 11 11 11 11 11 11 11 11 11 11
22 21 18 17 17 17 17 16 15 13 11 9 9 9 8 8 9 9 8 9 9 9 9 9 10 10 10 10 10 10 10 10 10 10 10 10 11 11 11 11 10 10 10
22 20 17 17 17 17 17 16 15 14 12 10 9 9 9 9 9 9 9 9 10 10 9 9 10 10 10 10 10 10 10 10 10 10 10 10 10 10 10 10 9 9 10
21 22 20 18 17 16 16 16 16 15 13 12 10 9 9 9 9 9 9 9 9 9 9 9 10 10 10 10 10 10 9 10 10 10 10 10 10 10 9 9 9 9 9
21 21 20 19 18 18 17 16 16 16 15 13 12 11 11 9 10 9 9 9 9 10 9 10 10 10 10 10 10 10 10 10 10 9 10 10 10 9 9 9 9 9 9
16 17 18 20 17 15 16 17 17 16 15 14 13 12 12 11 11 10 10 9 10 9 10 11 10 10 10 10 9 9 9 9 9 9 9 9 9 9 9 9 8 7 7
15 15 16 17 18 17 16 15 15 17 15 15 14 13 12 12 12 11 11 10 10 10 10 11 10 10 10 9 9 9 9 9 9 10 9 9 8 8 8 5 5 5 4
12 13 13 15 17 18 17 16 15 15 16 15 15 14 12 12 12 11 11 11 10 10 10 10 10 10 9 9 9 9 9 9 9 9 9 8 6 4 3 3 2 1 0
9 10 12 13 14 15 15 15 15 14 13 14 16 14 13 13 12 12 11 11 10 10 10 10 10 10 9 9 9 9 9 9 9 8 8 4 3 1 0 -0 -0 -1 -1
9 9 9 11 11 12 13 12 12 13 13 14 12 14 13 13 13 12 11 11 11 10 10 10 10 9 9 9 9 9 8 8 8 4 1 -0 -1 -1 -1 -2 -2 -2 -3
7 7 6 7 7 8 9 8 9 9 10 12 13 12 12 12 12 12 12 11 11 11 10 10 9 8 8 8 7 8 8 6 4 1 -1 -3 -2 -2 -2 -2 -3 -4 -4
4 4 4 5 5 6 6 6 6 6 8 8 9 9 9 10 10 12 12 11 10 10 10 8 7 6 3 3 1 1 1 -0 0 -2 -3 -3 -4 -4 -4 -4 -5 -6 -6
3 3 5 6 6 6 5 5 5 5 6 7 7 6 6 6 7 7 8 8 8 5 5 2 1 -1 -3 -3 -4 -3 -3 -4 -3 -4 -4 -5 -5 -6 -6 -7 -7 -8 -8
1 3 5 4 4 4 3 3 4 5 5 5 4 3 3 2 2 2 2 3 2 1 0 -1 -5 -4 -4 -4 -4 -5 -4 -3 -4 -5 -6 -7 -7 -8 -9 -9 -10 -11 -11
0 1 1 1 2 2 2 1 1 2 6 5 3 1 -1 -2 -3 -3 -5 -3 -3 -2 -4 -3 -3 -5 -4 -4 -3 -3 -5 -5 -5 -6 -7 -8 -8 -9 -10 -11 -12 -12 -13

GFSMW_850_temp_096.txt.gz
Temp
24 23 21 21 20 18 17 16 16 15 14 11 10 9 10 10 10 11 11 11 11 11 10 11 10 11 12 11 11 10 10 11 10 10 9 9 10 10 10 10 10 10 11
21 20 20 20 20 19 17 16 15 15 14 12 9 9 9 10 10 10 10 10 11 11 11 10 10 10 10 11 11 11 10 10 10 11 10 9 9 9 10 10 10 10 10
20 18 19 19 19 18 17 16 15 15 13 11 9 9 10 9 9 9 9 10 10 11 10 10 11 9 10 11 10 10 10 10 10 11 10 9 9 9 9 9 10 10 10
20 20 18 18 19 17 16 16 15 14 13 11 9 9 9 9 9 9 9 10 10 10 10 10 10 9 10 10 10 10 10 10 10 10 10 10 10 10 10 9 10 10 10
21 19 18 19 18 17 16 15 14 13 13 10 9 8 9 9 9 9 8 9 10 10 10 10 9 9 10 10 10 10 10 11 11 12 10 10 11 11 11 11 10 10 10
21 19 18 18 18 16 15 14 13 13 11 10 9 8 8 8 8 8 8 8 8 8 8 9 8 9 9 9 10 10 10 10 11 10 10 11 11 11 11 11 11 11 11
21 17 15 17 17 16 15 14 12 12 11 9 9 8 8 8 8 8 8 8 8 8 8 8 8 8 8 9 8 10 10 10 10 10 11 10 11 11 11 11 11 11 11
20 16 17 18 18 16 15 14 12 12 11 9 9 9 8 8 8 8 9 9 9 9 9 10 9 9 8 8 8 9 11 10 10 10 11 10 11 11 11 11 11 11 11
19 16 15 18 18 17 16 15 13 12 12 10 10 9 8 9 9 9 9 9 9 9 9 8 8 8 8 8 9 9 10 10 10 10 10 11 11 10 11 10 10 11 10
16 14 15 18 18 18 16 14 14 14 13 10 9 10 10 9 10 9 9 9 9 8 7 8 8 8 8 8 8 9 9 9 10 10 10 10 11 11 11 10 10 10 10
16 15 17 19 18 17 16 15 14 13 12 11 9 9 9 9 9 10 9 9 9 8 8 8 8 8 7 8 8 9 9 9 9 9 9 10 10 10 10 10 11 11 10
18 16 15 15 16 17 17 16 14 13 13 12 9 9 9 9 9 9 9 9 9 8 8 8 8 8 8 9 9 9 9 9 10 9 10 10 10 10 11 11 11 11 11
17 18 16 16 16 16 16 15 14 13 13 13 9 8 8 9 9 9 9 9 9 9 9 9 8 9 9 9 9 9 9 9 10 10 10 10 10 10 10 11 11 11 11
17 18 16 15 16 16 16 16 15 14 13 13 11 9 8 8 8 9 9 8 8 9 8 8 9 9 9 9 9 9 10 10 10 10 10 10 10 10 10 10 10 10 10
17 18 16 15 14 14 15 16 15 15 14 13 13 9 9 8 8 8 8 8 8 8 9 8 8 9 9 9 9 10 9 10 10 10 10 10 10 10 10 10 10 10 9
13 15 16 14 14 14 14 15 16 15 14 14 13 13 10 9 9 8 8 8 8 8 9 9 9 9 9 9 9 9 9 9 10 10 10 10 9 9 9 9 9 9 9
9 11 10 11 13 13 12 13 13 12 13 13 13 13 12 11 9 9 8 8 8 8 9 9 9 9 10 10 10 10 10 10 10 9 9 9 9 10 9 9 9 9 9
7 9 10 12 12 12 12 12 13 16 14 13 13 12 12 11 10 9 9 9 8 8 8 9 9 9 10 10 10 10 9 9 9 9 9 9 9 9 9 8 8 8 7
6 6 7 10 12 13 12 13 14 13 12 12 11 11 12 12 11 11 10 10 9 9 9 9 10 9 10 10 10 10 9 8 8 8 9 9 8 8 7 7 5 5 2
8 9 9 8 9 9 10 11 13 12 11 10 10 10 10 11 11 11 11 11 10 10 9 9 9 9 9 10 10 10 9 9 9 8 8 7 7 4 4 2 1 1 -2
5 6 8 10 9 10 9 9 9 10 10 10 10 10 11 10 10 10 10 11 11 10 9 9 9 9 9 10 9 9 9 9 9 7 5 4 2 1 -1 -1 -2 -1 -3
4 5 6 7 8 8 6 6 6 6 7 8 8 9 10 10 10 10 10 10 10 10 10 10 9 9 8 8 8 8 8 7 6 2 -1 -5 -4 -3 -3 -2 -3 -3 -4
3 3 4 5 8 8 6 6 5 5 6 7 7 7 7 8 9 9 10 10 10 10 9 8 8 6 4 4 4 3 3 2 0 -3 -4 -4 -3 -3 -3 -4 -5 -5 -6
1 2 3 5 5 4 4 3 2 3 4 6 6 6 6 6 6 5 5 4 4 6 7 5 3 2 -1 -1 -2 -2 -3 -3 -3 -3 -3 -3 -3 -3 -4 -6 -6 -7 -8
1 1 2 2 1 1 3 3 2 2 3 3 2 4 5 5 4 3 0 -0 -2 -3 -2 -3 -3 -2 -3 -3 -3 -3 -2 -2 -2 -3 -6 -5 -6 -6 -7 -8 -9 -10 -10
-1 -0 1 1 0 1 2 1 2 3 3 2 0 -2 -2 -0 1 2 0 -2 -3 -3 -4 -3 -3 -4 -4 -4 -4 -4 -5 -4 -5 -5 -6 -7 -8 -9 -10 -10 -11 -11 -10

GFSMW_850_temp_102.txt.gz
Temp
20 21 21 21 21 20 20 19 19 18 16 16 15 14 13 11 10 11 12 11 11 11 11 10 10 10 9 9 8 9 10 9 10 10 9 8 9 9 9 9 9 9 10
19 19 19 20 21 20 19 19 19 17 17 16 15 14 14 11 10 10 11 11 11 11 10 10 10 10 8 8 9 10 9 9 10 10 9 7 7 8 8 8 9 9 10
17 17 18 18 19 20 19 20 18 17 17 16 15 14 13 11 10 9 10 10 10 10 10 10 10 9 10 9 8 9 9 9 10 10 10 8 8 8 8 9 9 9 10
16 16 17 18 19 21 18 19 16 16 16 16 15 14 13 13 11 9 9 10 10 10 10 10 10 9 9 8 8 9 9 9 10 9 10 11 10 9 9 9 9 9 9
14 15 16 18 19 18 18 18 15 15 16 16 14 13 12 12 11 10 9 9 10 10 10 10 10 10 9 9 9 9 9 10 10 9 9 10 11 10 10 10 10 9 10
13 14 14 15 17 17 17 15 14 15 14 14 14 13 12 12 8 8 9 9 9 10 9 10 10 9 8 8 9 9 9 10 10 10 10 10 10 11 11 11 11 11 11
11 12 13 13 16 17 17 14 14 15 14 13 13 12 12 11 10 9 9 8 9 10 9 9 10 10 9 9 8 9 9 9 10 10 10 10 9 11 11 11 11 11 11
11 12 12 13 14 17 17 15 14 15 15 13 13 12 11 10 10 9 9 8 9 9 9 9 9 9 9 8 7 7 9 9 9 9 9 10 9 10 11 11 10 10 10
11 11 12 14 14 16 17 16 13 14 15 14 13 12 11 10 9 8 8 8 8 8 8 9 9 9 9 7 6 7 7 7 8 8 9 9 9 10 10 10 10 10 9
11 10 11 12 12 12 12 10 11 14 15 14 13 12 11 10 9 9 9 9 8 8 8 8 8 8 8 7 6 6 6 7 7 7 8 8 9 9 10 9 10 10 8
10 10 11 11 12 12 11 10 10 12 14 14 13 12 11 10 10 9 9 10 8 8 8 8 8 8 7 7 6 7 7 7 7 7 7 8 8 9 9 9 9 9 9
9 10 10 9 11 12 11 10 9 11 13 14 13 12 11 10 10 10 9 9 10 8 8 8 7 7 7 7 7 7 8 8 7 7 7 8 8 9 8 8 9 9 9
8 9 9 10 12 11 10 9 9 10 11 12 13 12 10 10 10 10 9 9 10 9 8 8 8 7 7 7 7 7 8 7 7 7 8 8 8 8 9 9 9 9 10
8 7 8 10 11 10 10 10 10 10 11 10 11 12 10 10 9 10 9 9 9 9 9 8 8 8 7 7 7 7 7 7 7 7 8 8 8 8 8 8 9 9 9
7 5 7 7 9 9 10 9 10 10 10 11 10 10 11 10 9 9 9 9 9 9 10 9 9 8 7 7 7 7 7 7 7 8 8 8 9 9 9 8 9 9 9
5 4 5 7 8 8 9 10 11 11 10 10 9 9 9 9 9 9 9 9 9 9 9 9 9 8 8 7 7 8 8 7 7 7 8 8 9 9 8 8 8 9 8
4 3 3 5 6 7 9 9 9 10 10 10 9 9 9 9 9 9 8 8 8 9 9 9 8 8 8 9 8 8 8 8 8 8 8 8 8 8 8 9 9 8 8
2 2 2 3 4 6 8 9 9 10 10 10 10 10 9 9 9 9 8 8 8 8 8 8 8 8 8 8 8 8 8 8 8 8 8 8 8 8 8 8 8 8 7
1 2 2 2 4 6 7 7 9 9 9 9 9 9 9 9 9 9 8 8 8 8 8 8 8 8 8 7 7 7 7 7 7 8 8 8 8 8 8 8 7 6 6
1 1 1 2 3 3 3 7 8 8 8 8 9 9 9 9 9 9 9 9 8 8 8 8 8 8 8 8 7 7 8 8 8 7 7 7 7 7 7 7 6 6 4
0 1 1 1 1 2 3 5 5 6 6 7 7 8 8 8 9 9 8 9 9 9 8 8 8 8 8 8 8 8 8 8 8 8 7 7 6 5 5 5 3 2 -1
-0 0 1 0 1 2 3 3 3 3 4 5 5 6 6 7 7 8 8 9 8 8 8 8 8 8 7 7 7 8 7 6 3 3 3 2 2 1 -0 -1 -2 -2 -3
-1 -0 0 0 -0 1 1 2 2 3 4 4 5 5 5 5 6 6 7 7 8 8 8 7 6 5 4 4 4 4 4 4 4 1 -3 -4 -4 -4 -3 -3 -3 -4 -5
-2 -1 -0 1 0 -0 1 0 -0 1 2 3 3 3 3 3 3 3 3 3 3 3 3 3 1 1 0 0 0 0 -1 0 -0 -2 -4 -4 -4 -3 -5 -6 -6 -6 -6
-3 -2 -1 -0 -0 0 0 1 1 0 0 0 1 1 0 0 1 1 -0 -0 -0 -0 0 -1 -1 -1 -1 -3 -3 -3 -3 -3 -3 -3 -4 -5 -6 -6 -6 -7 -6 -7 -7
-4 -3 -3 -2 -1 -0 -0 -0 -0 -0 -0 -1 -1 -1 -1 -2 -3 -3 -4 -5 -4 -3 -3 -3 -2 -4 -4 -4 -4 -4 -4 -5 -6 -5 -6 -6 -6 -6 -7 -8 -7 -7 -8

GFSMW_850_temp_108.txt.gz
Temp
20 20 18 18 18 19 20 20 19 18 15 14 15 16 17 16 15 15 14 13 13 13 12 11 11 11 11 10 10 9 9 9 9 9 9 9 9 9 8 9 9 8 8
20 19 17 17 16 18 17 18 18 16 15 14 15 15 16 16 15 15 14 13 13 11 12 11 11 11 10 10 9 9 10 9 9 8 9 8 8 8 8 9 9 8 8
19 18 17 16 16 16 16 16 15 14 13 12 12 12 15 14 14 15 13 12 12 10 11 11 11 11 10 10 9 9 9 8 8 8 9 8 8 8 8 8 9 8 8
17 17 16 16 16 15 15 15 14 13 12 12 12 12 15 15 15 15 14 11 12 11 11 11 10 11 10 10 10 9 8 9 8 9 9 10 10 10 8 8 9 8 8
16 16 16 15 15 15 14 14 13 12 11 11 12 12 12 12 12 11 12 12 11 11 11 10 10 10 10 10 10 8 8 8 8 9 8 9 10 10 10 9 9 9 9
16 16 16 15 15 15 14 12 12 12 10 11 12 11 12 12 12 13 14 13 11 10 10 10 10 10 10 10 9 8 8 8 9 9 8 10 9 9 10 10 9 9 9
15 15 15 15 14 14 13 13 11 11 10 10 12 11 12 12 12 13 12 13 10 10 10 10 10 9 10 10 9 8 8 9 9 9 9 9 10 11 11 10 9 9 9
15 15 15 14 14 13 13 13 12 10 10 10 11 11 10 11 11 12 13 13 10 9 10 10 10 10 9 9 9 8 8 9 9 8 8 9 9 11 11 10 10 10 10
15 14 14 13 13 12 11 12 11 10 10 9 11 10 12 11 11 10 11 10 9 9 9 9 9 9 9 9 9 9 8 8 8 8 8 9 8 10 10 11 11 11 11
14 13 12 11 11 10 10 10 11 9 9 10 10 10 11 10 10 9 12 11 11 9 8 9 9 9 9 9 9 8 8 8 8 7 7 8 8 10 11 9 11 10 10
13 12 10 9 9 9 11 11 10 9 9 9 10 11 10 10 10 9 11 11 10 8 8 9 9 9 9 9 9 9 7 7 7 7 7 8 8 9 9 10 10 10 9
12 11 9 7 7 9 9 9 9 9 9 9 10 10 10 10 10 9 11 11 10 8 9 9 8 8 9 9 9 8 7 7 7 7 7 7 7 7 8 8 8 8 9
10 9 8 6 5 9 9 9 9 9 9 9 9 10 11 11 10 9 11 10 10 8 9 9 9 8 8 8 8 8 7 7 6 7 7 7 7 7 8 7 7 7 8
8 6 5 5 4 8 6 7 9 9 9 9 9 9 9 11 10 10 11 10 10 9 10 10 10 9 8 7 7 7 7 7 6 6 6 7 7 7 7 6 7 7 8
5 4 3 3 3 7 5 8 8 8 9 8 8 9 9 9 8 9 10 10 9 9 9 9 9 9 9 8 8 7 7 7 6 6 6 6 7 7 7 7 7 8 8
3 3 1 3 2 6 4 6 8 8 8 8 8 9 9 8 8 9 9 9 9 8 8 8 9 9 8 9 8 7 7 7 6 6 6 6 7 7 7 6 6 6 6
1 1 -0 1 2 4 2 4 8 8 8 9 9 9 8 9 9 9 8 9 8 8 8 8 8 8 9 9 8 8 7 7 7 7 6 6 7 7 6 6 6 6 6
-1 -1 -1 -0 2 3 2 1 8 8 8 8 8 8 9 9 9 9 9 9 8 8 8 8 8 8 8 8 8 8 7 7 7 7 7 7 7 7 6 6 6 6 6
-1 -1 -2 -1 0 2 2 1 6 8 8 8 8 8 8 8 9 9 9 9 9 8 8 8 8 8 8 7 7 7 7 7 7 7 7 7 7 7 7 7 6 6 6
-1 -1 -1 -1 -1 1 2 0 4 6 6 7 7 8 8 8 8 8 9 8 8 8 8 8 8 8 7 8 7 7 7 6 7 7 7 7 7 7 7 6 6 6 6
-1 -1 -1 -1 -1 -1 2 1 3 4 3 6 6 6 7 8 8 8 8 8 8 8 8 8 7 7 7 7 8 7 7 7 7 6 6 6 7 6 6 6 6 5 5
-1 -1 -1 -1 -1 1 1 -1 2 3 4 0 4 5 6 6 7 7 7 8 8 8 8 7 7 6 6 7 7 7 7 6 6 6 5 5 5 5 4 3 2 1 0
-2 -2 -2 -1 -0 1 2 1 1 2 2 2 3 4 4 5 5 6 6 6 6 6 6 5 4 4 4 4 5 5 5 5 5 3 3 3 2 2 1 0 -1 -2 -3
-3 -2 -2 -2 -2 -1 -1 -1 -1 -1 -0 0 0 1 2 2 2 2 3 3 3 3 3 2 2 2 2 2 2 3 2 2 2 2 -1 -1 -2 -2 -4 -5 -5 -5 -5
-4 -3 -3 -3 -2 -1 -1 -1 -0 -3 -3 -3 -3 -2 -2 -1 -1 -1 -1 -1 -1 -0 0 -0 -0 -0 -1 -2 -2 -1 -1 -2 -3 -3 -4 -5 -6 -6 -6 -6 -6 -6 -6
-5 -4 -4 -4 -3 -2 -1 -1 -2 -3 -4 -3 -3 -4 -4 -4 -4 -4 -4 -4 -3 -3 -3 -3 -2 -3 -3 -4 -3 -4 -4 -4 -6 -5 -6 -7 -7 -7 -7 -7 -7 -7 -8

GFSMW_850_temp_111.txt.gz
Temp
23 23 23 21 20 20 20 20 19 19 17 16 16 15 14 13 14 14 13 13 15 15 14 12 12 12 12 12 11 11 10 10 10 9 9 10 10 10 11 11 10 9 9
23 23 22 20 19 19 19 19 19 18 17 16 16 14 13 13 13 14 13 13 13 14 13 11 11 12 11 11 11 10 10 10 9 9 9 9 9 9 10 11 10 9 9
23 23 21 19 19 18 18 18 18 18 17 16 15 13 12 13 13 14 15 14 14 13 11 11 11 11 11 11 11 10 10 9 9 9 9 9 9 9 9 10 11 9 9
22 21 20 19 18 18 17 17 17 17 17 16 14 12 12 12 12 12 13 12 13 13 12 11 11 11 11 10 10 10 11 9 9 9 9 9 10 9 8 9 11 10 9
20 20 19 19 18 18 17 16 15 16 16 16 14 12 12 12 13 12 12 12 13 13 11 11 10 11 11 10 10 10 9 9 9 9 8 9 9 10 10 9 11 10 9
19 19 19 18 18 17 16 15 15 15 15 15 14 13 12 13 14 13 12 12 12 12 11 10 11 10 10 10 10 10 9 9 8 8 8 9 9 10 11 10 10 10 10
18 18 18 18 17 17 16 15 15 15 14 13 12 12 12 12 14 14 13 11 11 12 11 11 11 10 10 10 10 9 9 9 8 8 8 8 9 9 10 10 10 10 10
18 18 17 16 16 16 15 14 14 15 14 13 10 11 11 13 14 13 12 11 11 11 11 10 10 10 10 10 10 10 9 8 8 8 8 9 8 9 10 10 10 9 10
18 17 16 14 13 13 12 13 11 13 14 13 10 11 11 12 13 13 13 11 11 10 9 11 11 10 10 10 9 9 9 8 8 8 9 9 9 8 9 10 11 11 10
17 15 15 13 11 11 10 11 10 12 13 12 10 10 11 11 12 12 11 11 11 10 10 10 10 10 10 10 9 9 8 8 8 8 8 8 8 8 8 9 10 11 11
15 15 13 12 10 9 8 8 8 11 14 11 10 9 10 11 12 11 11 10 12 10 9 9 10 10 9 9 9 9 9 8 8 8 8 8 8 8 8 8 8 9 10
12 12 12 11 10 8 7 6 9 11 11 10 9 9 10 11 11 11 10 11 11 9 9 9 10 9 9 9 9 8 8 8 8 8 8 8 7 7 7 8 8 9 9
10 10 9 8 8 7 5 7 8 9 9 9 9 9 9 10 10 10 10 12 10 9 10 9 9 8 9 9 9 9 8 8 8 8 8 8 8 7 7 8 7 8 8
8 7 6 6 6 5 4 6 7 9 9 9 9 9 9 10 10 10 9 11 10 9 10 10 9 9 8 9 8 8 8 8 7 7 7 7 7 7 7 7 7 8 8
6 5 4 3 3 3 4 5 6 8 9 9 9 9 9 9 10 9 9 9 10 9 10 11 9 9 9 9 8 8 8 7 7 7 7 7 7 7 7 7 6 7 7
3 3 2 1 1 0 3 2 5 7 8 8 8 9 9 9 9 9 9 9 9 9 8 10 10 10 10 10 9 8 7 7 7 6 6 6 6 6 6 7 6 6 6
1 0 -1 -1 -1 1 2 1 5 6 8 8 8 8 8 9 8 9 8 9 9 9 8 9 9 9 9 9 9 8 7 7 7 7 6 6 6 6 6 6 6 6 6
-1 -2 -2 -1 -1 0 0 1 4 6 8 8 8 8 8 8 8 8 8 9 9 8 8 8 8 9 10 10 9 9 7 7 7 7 7 6 6 6 6 6 5 6 6
-3 -2 -2 -2 -1 -0 -0 0 2 1 4 8 8 8 7 8 8 9 9 9 8 8 8 8 8 8 8 9 8 8 8 6 7 7 7 7 7 7 7 6 6 6 6
-2 -2 -2 -2 -1 -1 -1 0 1 -0 0 3 6 7 7 8 8 8 8 8 8 8 8 8 8 8 7 8 8 8 7 7 7 7 7 7 7 7 7 6 6 6 6
-2 -2 -2 -2 -2 -1 -1 -1 0 -1 -1 -0 4 5 6 7 8 8 8 8 8 8 8 8 7 7 7 8 8 7 7 7 7 6 6 6 7 7 7 7 6 6 6
-2 -2 -2 -2 -1 -1 -1 -2 -2 -2 -3 -1 3 3 6 4 6 8 8 8 8 8 8 7 7 7 7 7 8 7 7 7 6 6 6 6 6 6 6 6 4 4 3
-3 -2 -2 -2 -3 -2 -3 -4 -2 -1 -2 2 2 2 2 2 3 6 6 7 7 7 6 6 5 5 5 6 6 6 6 6 6 5 4 4 4 3 3 3 1 0 -0
-3 -3 -3 -2 -2 -3 -3 -3 -5 -4 -1 0 0 0 1 2 1 3 4 3 2 2 2 2 2 2 2 2 3 3 3 2 2 1 -0 -0 -0 -1 -1 -3 -4 -4 -4
-4 -4 -4 -4 -3 -3 -3 -2 -2 -3 -2 -4 -6 -5 -4 -2 -3 -2 -2 -1 -1 -0 0 0 -0 -0 -0 -1 -1 -1 -1 -2 -2 -2 -3 -4 -3 -5 -5 -6 -6 -6 -5
-6 -6 -5 -5 -5 -4 -3 -3 -3 -2 -2 -2 -4 -4 -4 -4 -4 -5 -5 -5 -4 -3 -3 -3 -2 -3 -3 -4 -4 -4 -4 -4 -5 -5 -6 -7 -7 -7 -7 -7 -7 -7 -7

GFSMW_850_temp_114.txt.gz
Temp
24 24 23 23 23 23 23 22 21 20 19 18 17 16 16 15 15 14 14 14 15 15 15 15 14 12 13 13 12 12 11 11 11 10 10 10 9 10 10 11 10 10 10
24 23 23 22 22 21 20 20 20 20 19 18 18 17 16 15 14 14 14 14 14 15 15 15 15 12 11 12 12 12 11 10 10 10 10 9 10 9 10 10 10 10 10
23 23 23 21 20 19 19 19 19 19 19 18 17 16 16 15 14 13 13 13 13 13 13 15 14 12 12 12 10 11 11 11 10 10 10 9 9 10 10 10 10 10 10
23 23 23 21 19 19 19 18 17 18 18 18 18 17 16 16 15 13 12 13 13 13 12 12 13 13 11 11 10 11 11 10 10 9 10 10 10 9 9 10 9 10 10
22 22 21 20 19 19 18 17 16 16 16 17 17 16 16 16 13 12 11 12 12 13 13 12 12 12 12 11 10 11 10 10 10 10 9 9 9 9 9 9 10 9 10
20 20 20 19 19 19 17 17 16 16 16 16 16 16 15 15 13 12 12 12 11 12 13 12 11 12 11 11 10 10 11 10 10 9 9 10 11 9 10 9 10 9 9
19 19 19 19 17 17 16 16 15 15 15 15 15 15 15 14 13 13 13 13 12 12 12 11 11 10 10 10 11 10 10 10 10 9 9 8 9 9 9 9 9 9 9
18 18 18 16 15 14 14 13 14 13 13 14 15 15 14 13 12 13 13 14 13 12 12 11 11 10 10 11 10 10 10 9 9 9 9 8 8 9 9 9 9 9 9
18 17 16 14 13 12 11 10 10 11 11 13 14 14 14 13 12 13 13 14 13 11 12 11 10 10 10 10 9 10 10 9 9 9 9 8 8 8 8 8 9 10 10
17 16 15 13 12 11 10 9 9 9 10 12 13 12 13 13 12 12 12 13 13 11 11 11 10 9 11 9 10 9 9 9 9 8 8 8 8 8 8 8 9 9 11
14 13 13 12 11 10 9 8 7 8 10 11 12 12 13 12 11 12 12 12 12 11 10 10 9 10 10 10 10 10 9 9 9 8 8 8 8 8 8 8 8 9 10
11 11 10 9 8 8 8 6 7 7 9 10 11 13 12 11 11 12 12 12 12 10 10 10 9 10 9 9 10 9 9 9 9 8 8 8 8 8 8 8 8 8 9
9 8 8 7 6 5 5 4 6 6 7 9 10 10 11 10 10 11 11 12 10 9 9 10 9 9 9 9 9 9 9 9 8 8 8 8 8 8 8 8 8 8 8
7 6 5 4 3 3 2 2 5 6 7 8 9 9 10 10 10 11 11 11 10 10 9 10 9 9 9 9 9 9 9 8 8 8 8 8 8 8 8 8 7 7 7
5 4 3 2 1 1 1 2 4 4 6 8 9 9 9 9 9 10 10 10 9 9 9 9 9 10 10 9 8 8 8 8 8 8 8 8 8 8 8 8 7 7 7
3 2 0 -1 -1 -0 1 -0 1 3 5 7 9 9 9 9 10 10 10 10 9 9 9 9 9 10 10 9 9 8 8 7 7 7 7 7 7 7 7 7 7 7 7
1 -1 -2 -2 -2 -1 -0 -1 -0 1 4 7 8 9 9 9 9 9 9 9 8 8 9 8 9 9 9 9 9 9 8 7 7 7 7 7 7 7 7 7 7 6 6
-1 -2 -3 -2 -2 -1 -0 -1 -1 0 2 7 8 8 8 9 9 9 8 8 8 8 8 8 9 9 9 8 8 8 7 7 7 7 7 7 6 6 6 6 6 5 5
-3 -3 -3 -3 -2 -2 -1 -1 -1 -0 1 2 6 7 8 8 8 8 8 8 8 8 8 8 8 8 8 8 8 8 7 7 7 7 7 7 7 6 6 6 6 6 6
-3 -3 -3 -3 -2 -2 -2 -2 -1 -1 0 1 1 4 7 8 8 8 8 8 8 8 8 8 8 8 8 8 8 7 7 7 7 7 6 7 7 7 6 6 6 6 6
-3 -3 -3 -2 -3 -3 -2 -2 -2 -2 -2 -0 0 1 5 7 8 8 8 8 8 8 8 8 8 8 8 8 7 7 7 7 7 7 7 7 7 6 6 6 6 6 6
-3 -3 -2 -2 -2 -3 -3 -2 -3 -3 -2 -0 -0 -0 2 2 6 7 8 8 8 7 7 8 7 7 7 7 8 7 7 7 7 6 6 6 6 6 6 6 5 5 4
-4 -3 -3 -3 -2 -2 -3 -4 -5 -4 -2 -1 -0 0 0 0 1 2 5 6 6 7 6 6 6 5 5 6 7 6 6 6 6 5 5 5 4 4 4 4 3 3 1
-4 -4 -4 -4 -4 -3 -3 -4 -5 -5 -4 -2 -0 -0 -0 0 1 1 2 1 1 2 3 3 3 2 2 3 4 2 3 2 2 1 -0 1 1 1 1 -1 -2 -2 -2
-6 -5 -5 -5 -5 -4 -4 -4 -4 -4 -4 -4 -3 -3 -4 -3 -2 -1 -1 -1 -1 -1 -0 -0 0 1 0 -2 -1 -1 -1 -1 -2 -2 -2 -3 -2 -3 -4 -4 -4 -5 -5
-7 -7 -6 -6 -6 -5 -5 -5 -5 -4 -5 -5 -5 -4 -5 -4 -4 -5 -5 -5 -4 -3 -2 -3 -2 -4 -4 -4 -3 -4 -4 -4 -4 -3 -4 -6 -6 -6 -6 -6 -6 -6 -6

GFSMW_850_temp_117.txt.gz
Temp
22 23 23 23 23 23 24 23 22 21 20 19 18 17 19 18 16 16 16 16 15 14 13 13 13 13 13 13 13 12 12 11 11 11 11 11 11 10 10 10 10 10 10
23 23 23 23 23 23 22 21 20 20 20 19 18 18 19 19 17 16 15 15 15 14 14 14 14 13 13 12 12 12 12 12 11 11 10 10 10 10 10 10 10 10 10
23 23 23 23 22 22 21 21 19 18 19 19 18 18 17 16 16 15 14 14 14 14 13 14 13 13 12 12 12 12 11 11 10 11 10 10 10 10 10 9 10 10 10
23 23 22 22 21 21 20 20 19 19 18 17 17 18 18 18 17 16 15 14 14 14 13 13 13 13 12 11 10 10 10 11 10 10 10 10 11 9 9 9 9 10 10
22 22 21 20 19 19 18 18 18 18 18 18 17 16 17 17 16 16 15 14 14 13 13 12 12 12 12 11 11 10 10 10 10 10 10 10 10 11 10 9 9 9 9
21 20 19 18 17 17 16 16 16 16 16 16 15 16 15 17 16 16 15 14 13 13 13 12 12 12 11 12 11 10 10 10 10 10 9 10 10 10 10 9 9 9 9
20 18 17 16 15 15 15 15 15 16 15 15 15 14 14 15 15 15 15 14 13 12 12 12 12 12 12 11 11 10 10 10 10 9 10 9 9 10 9 9 8 8 9
16 16 15 15 15 15 15 15 15 15 14 14 15 14 13 13 14 14 14 13 13 13 12 12 12 11 11 11 10 9 10 10 10 9 10 9 9 9 9 10 9 8 9
14 14 13 13 14 14 13 14 15 14 13 12 13 13 14 13 13 14 14 13 13 14 13 12 12 11 11 10 9 9 9 9 9 9 9 9 9 8 9 9 9 9 8
11 11 11 11 12 12 12 13 12 11 11 10 11 12 12 12 12 13 13 13 12 13 13 12 11 11 10 10 9 9 9 9 9 10 9 9 9 8 8 8 9 8 8
9 9 9 10 10 10 10 9 9 9 9 9 11 11 11 11 12 12 12 13 12 13 12 13 11 10 10 10 9 9 9 9 9 9 9 9 8 8 8 8 8 8 8
7 8 7 7 8 7 7 7 7 7 7 8 9 9 10 12 13 11 12 12 12 12 12 12 12 10 9 9 9 9 10 9 9 9 8 8 8 8 8 8 8 8 7
5 4 5 5 5 6 7 7 7 7 7 7 8 8 10 10 11 11 12 12 12 12 12 12 10 9 9 9 9 9 9 9 9 9 8 8 8 8 8 8 8 8 8
3 2 2 3 3 4 5 5 5 6 6 6 7 8 9 10 10 10 11 11 12 11 11 11 10 9 9 8 9 9 9 9 9 9 9 8 8 8 8 8 8 8 8
1 1 0 1 2 3 3 4 4 5 5 5 5 7 8 9 9 9 10 10 11 10 11 11 9 9 9 8 8 8 8 9 9 8 8 8 8 8 8 8 8 7 7
0 1 -1 -1 -1 -0 1 2 2 2 2 3 3 6 8 9 9 9 9 10 10 11 11 10 9 9 9 9 8 8 8 8 8 8 8 8 8 8 8 8 8 8 8
-1 -1 -2 -2 -2 -1 -0 0 0 1 1 1 3 5 8 9 9 9 9 10 10 11 10 9 8 9 8 8 8 8 8 8 7 8 7 7 7 7 7 8 8 7 7
-2 -2 -2 -2 -1 -1 -0 -0 -0 -0 0 0 2 3 7 9 9 9 9 9 10 9 9 9 8 8 8 8 8 8 7 7 7 7 7 7 7 7 7 7 7 7 7
-3 -3 -3 -2 -1 -1 -1 -1 -1 -1 -1 -1 1 3 5 8 8 9 9 9 9 9 9 8 8 7 7 7 7 7 7 6 7 7 7 7 6 6 6 6 6 6 6
-3 -3 -3 -2 -2 -1 -2 -2 -3 -2 -2 -1 -1 1 2 7 8 9 9 8 8 8 8 8 8 8 7 7 7 7 7 7 7 7 7 7 7 6 6 6 6 6 6
-3 -3 -3 -3 -3 -3 -3 -3 -3 -4 -3 -1 -1 -0 2 4 7 8 8 8 8 8 8 8 8 8 8 7 7 7 7 7 7 6 6 6 6 6 6 6 6 6 6
-3 -3 -3 -3 -3 -3 -3 -3 -3 -4 -3 -1 -1 -1 0 2 2 6 8 8 8 8 8 8 8 7 7 7 7 7 7 7 6 6 7 7 7 6 6 6 6 6 6
-4 -5 -4 -4 -4 -4 -4 -4 -4 -3 -3 -2 -2 -2 -1 1 1 0 3 5 7 7 7 7 7 7 7 7 6 6 6 6 6 6 6 6 6 6 6 5 5 5 4
-6 -5 -5 -5 -4 -4 -4 -4 -4 -4 -3 -3 -3 -2 -2 -1 -0 1 -0 0 1 4 3 3 4 4 4 4 4 5 4 5 4 4 3 3 4 3 3 2 1 0 -1
-7 -6 -6 -6 -6 -5 -5 -4 -4 -4 -4 -4 -5 -4 -4 -4 -3 -3 -2 -0 -1 0 0 -0 -1 -1 -0 -0 0 1 1 1 2 0 0 0 -1 0 -2 -2 -3 -3 -3
-8 -8 -7 -7 -6 -6 -5 -5 -5 -5 -5 -5 -6 -6 -6 -6 -6 -5 -6 -5 -5 -4 -3 -3 -2 -4 -4 -3 -2 -2 -2 -2 -0 -2 -1 -3 -4 -4 -5 -5 -5 -5 -5